DECAYED

CZ-2C R/B, 49030 (Decayed)

Orbit data source: Space-Track

CZ-2C R/B, 49030 was space debris in LEO originally from a launch on Mon, 19 Jul 2021 UTC launched from the Xichang Space Center, China (XSC). Debris objects in space refer to the collection of defunct objects orbiting the Earth. Examples of debris include non-operational satellites, rocket bodies, and fragments generated from explosions, collisions, or faulty payload assembly.

Not visible in the next 10 days
Identifier
49030, 2021-065E
Orbit
Decayed
Country
Flag of CNCN / PRC
Related business
Manufacturer
CALT
Mission
Decayed spacecraft
Bus & Motor
CZ-2 STAGE 2, Unknown motor
Mass
~3,800 kg wet, ~3,800 kg dry
Launch date (UTC)
2021-07-19 (5 years ago)
Launch vehicle
Unknown
Launch site
Xichang Space Center, China (XSC)
Object type
Payload
Rocket body
Debris
Shape & HBR
Cyl, 3.7 m
Radar Cross Section
23.715 m², Large (>1 m²)

Expand to show TLE details & history
Last TLE update: 5 months ago

TLE from 5 months ago
0 CZ-2C R/B
1 49030U 21065E   26025.87309993  .06850891  15765-5  55021-3 0  9995
2 49030  35.1094 219.5488 0007259 305.3344 192.6636 16.38766773253245
Epoch: 2026-01-25T20:57Z
TLE epoch observation values (Epoch: 2026-01-25T20:57:15.833Z)
Latitude
22.73961°
Longitude
-76.29384°
Altitude
172.389 km
Speed
7.805 km/s
True Right ascension
00h 12m 47s
True Declination
22° 36' 23"
Sunlit
Object was in daylight at epoch
Visualization orbit readout
Latitude
Unknown
Longitude
Unknown
Altitude
Unknown
Speed
Unknown
Apparent Right ascension
Unknown
Apparent Declination
Unknown
Sunlit
N/A
Visualization observer readout
Local Sidereal Time
21:24:57
Azimuth
Unknown
Elevation
Unknown
Doppler factor
Unknown
Orbital elements
Apogee altitude
177.235 km
Perigee altitude
167.724 km
Semi-major axis
6,550.617 km
Eccentricity
0.00073
Inclination
35.1094°
RAAN
219.5488°
Arg. of periapsis
305.3344°
True anomaly
192.64538°
Mean anomaly
192.6636°
Eccentric anomaly
192.65449°
Mean motion
4.09374 °/min
Orbital period
87.94 mins
BSTAR
0.00055021
Loading maneuver chart data...
Computing Atmospheric mass density...
Loading historical data...
Loading historical data...
Loading historical data...
Loading historical data...
Loading historical data...
Loading historical data...
Loading historical data...
Other satellites on launch #65 in the year 2021 (2021-07-19 UTC)

Documentation

Showing up to 5 results
|